Weather History for Rome, NY

Change the Weather History Date:

Saturday, February 9, 2013

  Actual Average Record
Temperature  
Mean Temperature 12 °F -  
Max Temperature 23 °F 27 °F 51 °F (1990)
Min Temperature 0 °F 10 °F -4 °F (1993)
Degree Days  
Heating Degree Days 53    
Moisture  
Dew Point 8 °F    
Average Humidity 71    
Maximum Humidity 88    
Minimum Humidity 46    
Precipitation  
Precipitation 0.00 in - - ()
Sea Level Pressure  
Sea Level Pressure 30.20 in    
Wind  
Wind Speed 9 mph (NW)    
Max Wind Speed 18 mph    
Max Gust Speed 24 mph    
Visibility 8 miles    
Events Snow    
Averages and records for this station are not official NWS values.
T = Trace of Precipitation, MM = Missing Value Source: NWS Daily Summary

Daily Weather History Graph

Daily Weather History Graph

Search for Another Location

Airport:

Trip Planner

Search our weather history database for the weather conditions in past years. The results will help you decide how hot, cold, wet, or windy it might be!

Date:

Astronomy

Feb. 09, 2013 Rise Set
Actual Time 7:07 AM EST 5:24 PM EST
Civil Twilight 6:37 AM EST 5:54 PM EST
Nautical Twilight 6:04 AM EST 6:28 PM EST
Astronomical Twilight 5:31 AM EST 7:01 PM EST
Moon 6:17 AM EST (2/9) 5:05 PM EST (2/9)
Length of Visible Light 11h 16m
Length of Day
10h 17m
Waning Crescent, 0% of the Moon is Illuminated
Feb 9
Waning Crescent
Feb 10
New
Feb 17
First Quarter
Feb 25
Full
Mar 4
Last Quarter

Hourly Weather History & Observations

Time (EST) Temp. Windchill Dew Point Humidity Pressure Visibility Wind Dir Wind Speed Gust Speed Precip Events Conditions
12:01 AM 21.9 °F 15.7 °F 18.0 °F 85% 29.92 in 6.0 mi NW 4.6 mph - 0.00 in   Overcast
12:53 AM 21.9 °F 15.7 °F 18.0 °F 85% 29.95 in 4.0 mi WNW 4.6 mph - 0.00 in Snow Light Snow
1:29 AM 21.9 °F 12.5 °F 18.0 °F 85% 29.95 in 3.0 mi North 8.1 mph - 0.00 in Snow Light Snow
1:35 AM 21.9 °F 10.4 °F 18.0 °F 85% 29.95 in 1.8 mi North 11.5 mph 19.6 mph 0.00 in Snow Light Snow
1:53 AM 21.9 °F 11.0 °F 17.1 °F 82% 29.98 in 1.5 mi NNW 10.4 mph - 0.00 in Snow Light Snow
2:02 AM 21.9 °F 10.4 °F 17.1 °F 82% 29.96 in 3.0 mi NNW 11.5 mph - 0.00 in Snow Light Snow
2:20 AM 19.9 °F 6.7 °F 12.9 °F 74% 29.97 in 9.0 mi North 13.8 mph 24.2 mph 0.00 in Snow Light Snow
2:53 AM 18.0 °F 8.7 °F 10.9 °F 74% 30.02 in 7.0 mi North 6.9 mph - 0.00 in Snow Light Snow
3:53 AM 15.1 °F 3.3 °F 8.1 °F 74% 30.05 in 10.0 mi North 9.2 mph - 0.00 in   Overcast
4:53 AM 15.1 °F 1.8 °F 8.1 °F 74% 30.09 in 7.0 mi NNW 11.5 mph - 0.00 in Snow Light Snow
5:53 AM 15.1 °F 0.5 °F 5.0 °F 64% 30.14 in 10.0 mi North 13.8 mph - 0.00 in   Overcast
6:53 AM 12.9 °F -1.6 °F 3.9 °F 67% 30.18 in 10.0 mi NNW 12.7 mph - 0.00 in   Overcast
7:53 AM 12.0 °F -4.5 °F 3.9 °F 70% 30.22 in 10.0 mi NW 16.1 mph - N/A   Overcast
8:53 AM 10.9 °F -4.1 °F 3.0 °F 70% 30.25 in 10.0 mi NW 12.7 mph - N/A   Clear
9:53 AM 12.9 °F -1.6 °F 5.0 °F 71% 30.27 in 10.0 mi WNW 12.7 mph - N/A   Clear
10:53 AM 16.0 °F 2.9 °F 5.0 °F 62% 30.29 in 10.0 mi NW 11.5 mph - N/A   Clear
11:53 AM 18.0 °F 3.6 °F 6.1 °F 60% 30.29 in 10.0 mi NNW 15.0 mph - N/A   Clear
12:53 PM 21.0 °F 9.3 °F 5.0 °F 50% 30.29 in 10.0 mi NNW 11.5 mph - N/A   Clear
1:53 PM 23.0 °F 10.6 °F 5.0 °F 46% 30.28 in 10.0 mi NNW 13.8 mph - N/A   Clear
2:37 PM 23.0 °F 9.2 °F 5.0 °F 46% 30.25 in 1.8 mi NW 17.3 mph - N/A   Haze
2:53 PM 23.0 °F 11.7 °F 5.0 °F 46% 30.28 in 10.0 mi NNW 11.5 mph - N/A   Clear
3:53 PM 21.9 °F 7.3 °F 8.1 °F 55% 30.31 in 10.0 mi West 18.4 mph - N/A   Clear
4:53 PM 19.9 °F 7.3 °F 7.0 °F 57% 30.34 in 10.0 mi West 12.7 mph - N/A   Clear
5:53 PM 17.1 °F 6.6 °F 7.0 °F 65% 30.36 in 10.0 mi West 8.1 mph - N/A   Clear
6:53 PM 12.0 °F 2.7 °F 6.1 °F 77% 30.38 in 10.0 mi WNW 5.8 mph - N/A   Clear
7:53 PM 12.9 °F 6.9 °F 7.0 °F 77% 30.40 in 10.0 mi NNW 3.5 mph - N/A   Clear
8:53 PM 8.1 °F - 5.0 °F 87% 30.42 in 10.0 mi Calm Calm - N/A   Clear
9:53 PM 3.0 °F - -0.0 °F 87% 30.43 in 10.0 mi Calm Calm - N/A   Clear
10:53 PM 1.9 °F - -2.0 °F 83% 30.44 in 10.0 mi Calm Calm - N/A   Clear
11:53 PM -0.0 °F - -2.9 °F 88% 30.45 in 10.0 mi Calm Calm - N/A   Clear